Home   Weather   33°23'N, 111°48'W   Past weeks
Flag for USA

Past Weather in 33°23'N, 111°48'W, USA — Yesterday and Last 2 Weeks

Now
93 °F

Sunny.


Feels Like: 90 °F
Forecast: 100 / 78 °F
Wind: 9 mph from South

Location: Mesa / Falcon Field

Current Time: Sep 19, 2019 at 12:05:31 pm

Latest Report: Sep 19, 2019 at 10:54 am


Visibility: 10 mi

Pressure: 29.73 "Hg

Humidity: 22%

Dew Point: 49 °F

Location of 33°23'N, 111°48'WLocation

Past Weather in 33°23'N, 111°48'W — Graph

°F

33°23'N, 111°48'W Temperature Yesterday

Maximum temperature yesterday: 100 °F (at 3:54 pm)
Minimum temperature yesterday: 79 °F (at 3:54 am)
Average temperature yesterday: 89 °F

High & Low Weather Summary for the Past Weeks

 TemperatureHumidityPressure
High109 °F (Sep 4, 2:54 pm)65% (Sep 10, 5:54 am)29.98 "Hg (Sep 10, 5:54 am)
Low74 °F (Sep 17, 5:54 am)9% (Sep 13, 1:54 pm)29.62 "Hg (Sep 8, 5:54 pm)
Average91 °F33%29.80 "Hg
* Reported Sep 4 10:54 am — Sep 19 10:54 am, 33°23'N, 111°48'W. Weather by CustomWeather, © 2019

Note: Actual official high and low records may vary slightly from our data, if they occured in-between our weather recording intervals... More about our weather records

Advertising

33°23'N, 111°48'W Weather History for the Previous 24 Hours

Scroll right to see more
 ConditionsComfort  
Time TempWeatherWind HumidityBarometerVisibility
10:54 am
Thu, Sep 19
93 °FSunny.9 mph22%29.73 "Hg10 mi
9:54 am90 °FSunny.3 mph23%29.75 "Hg10 mi
8:54 am88 °FSunny.8 mph25%29.76 "Hg10 mi
7:54 am85 °FSunny.7 mph29%29.76 "Hg10 mi
6:54 am80 °FSunny.7 mph34%29.74 "Hg10 mi
5:54 am81 °FPassing clouds.7 mph33%29.72 "Hg10 mi
4:54 am80 °FPassing clouds.8 mph34%29.73 "Hg10 mi
3:54 am81 °FClear.6 mph34%29.72 "Hg10 mi
2:54 am82 °FClear.8 mph32%29.72 "Hg10 mi
1:54 am82 °FClear.6 mph33%29.72 "Hg10 mi
12:54 am85 °FClear.6 mph32%29.72 "Hg10 mi
11:54 pm
Wed, Sep 18
84 °FClear.3 mph35%29.72 "Hg10 mi
10:54 pm86 °FClear.No wind32%29.71 "Hg10 mi
9:54 pm88 °FClear.No wind29%29.71 "Hg10 mi
8:54 pm91 °FPassing clouds.3 mph26%29.71 "Hg10 mi
7:54 pm93 °FClear.3 mph23%29.70 "Hg10 mi
6:54 pm96 °FClear.6 mph19%29.70 "Hg10 mi
5:54 pm98 °FSunny.9 mph17%29.70 "Hg10 mi
4:54 pm100 °FSunny.9 mph18%29.70 "Hg10 mi
3:54 pm100 °FSunny.8 mph18%29.71 "Hg10 mi
2:54 pm99 °FSunny.6 mph20%29.74 "Hg10 mi
1:54 pm98 °FSunny.9 mph20%29.76 "Hg10 mi
12:54 pm98 °FSunny.9 mph22%29.78 "Hg10 mi
Weather by CustomWeather, © 2019

See weather overview